Location: Tucson
(32.2217°N, 110.9265°W)
Time: 19:40:31
(UTC-07:00)

Tiangong - Visible Passes

Search period start: 30 November 2023 00:00
Search period end: 10 December 2023 00:00
Orbit: 373 x 384 km, 41.5° (Epoch: 30 November)

Date Brightness Start Highest point End Pass type
(mag) Time Alt. Az. Time Alt. Az. Time Alt. Az.
30 Nov -1.3 18:51:38 10° NW 18:53:59 40° NNW 18:53:59 40° NNW visible
01 Dec -1.1 17:50:09 10° NW 17:52:59 30° NNE 17:55:47 10° E visible
01 Dec 0.6 19:26:46 10° WNW 19:27:54 19° W 19:27:54 19° W visible
02 Dec -2.2 18:24:55 10° WNW 18:28:04 87° SSW 18:29:51 23° ESE visible
03 Dec 0.3 19:00:20 10° W 19:02:46 21° SW 19:04:11 16° S visible
04 Dec -1.0 17:57:59 10° WNW 18:01:01 44° SSW 18:04:01 10° SE visible
05 Dec 1.2 18:34:24 10° WSW 18:35:25 11° SW 18:36:25 10° SSW visible
